2003 FM127
Eccentricity assumed
Epoch 2006 Mar. 6.0 TT = JDT 2453800.5                  MPC
M  72.53788              (2000.0)            P               Q
n   0.00338216     Peri.   85.43723     -0.73949486     -0.67055848
a  43.9548619      Node    52.43901     +0.58424538     -0.68297957
e   0.0499606      Incl.    4.27924     +0.33437207     -0.28963810
P 291              H    7.0           G   0.15
Residuals in seconds of arc
K033V  695  0.2-  0.1+    K034L  304  0.4+  0.0     K064Q  807  0.0   0.2-
K0341  695  0.2-  0.1-    K0361  568  0.4-  0.2+    K064Q  807  0.0   0.0
K0341  695  0.0   0.1-    K0362  568  0.2-  0.1-    K064R  807  0.1+  0.2+
K034L  304  0.3+  0.1+    K0362  568  0.3+  0.1-

2003 QG91
Epoch 2006 Mar. 6.0 TT = JDT 2453800.5                  MPC
M 295.87182              (2000.0)            P               Q
n   0.00355319     Peri.  348.30806     +0.94459494     -0.32764357
a  42.5327470      Node    30.84035     +0.30417316     +0.85113998
e   0.0150006      Incl.    2.20795     +0.12336564     +0.41013464
P 277              H    7.1           G   0.15           U   5
Residuals in seconds of arc
K038O  807  0.1+  0.2+    K03AN  695  0.0   0.7-    K047G  807  0.3+  0.1-
K038O  807  0.0   0.1+    K03AO  695  0.2+  0.2+    K064R  807  0.4+  0.4-
K038P  807  0.1-  0.0     K047G  807  0.4-  0.3+    K064S  807  0.3-  0.3+

2004 EV95
Epoch 2006 Mar. 6.0 TT = JDT 2453800.5                  MPC
M  93.81409              (2000.0)            P               Q
n   0.00391378     Peri.  258.58792     -0.00772598     -0.99897748
a  39.8784361      Node   192.12314     +0.98010790     +0.00126956
e   0.1922793      Incl.   12.24589     +0.19831496     -0.04519266
P 252              H    7.5           G   0.15           U   6
Residuals in seconds of arc
K043F  695  0.2+  0.1-    K045E  568  0.4+  0.4-    K064R  807  0.1-  0.0
K043G  695  0.1-  0.1-    K045Q  304  0.2-  0.1+    K064S  807  0.0   0.0
K043G  695  0.2-  0.1+    K045Q  304  0.0   0.6+
K045E  568  0.1-  0.2-    K064R  807  0.1+  0.0

2005 EE296
Epoch 2006 Mar. 6.0 TT = JDT 2453800.5                  MPC
M 239.71164              (2000.0)            P               Q
n   0.00334053     Peri.  284.25310     -0.06391376     +0.99779875
a  44.3192661      Node   342.05416     -0.89205695     -0.06506604
e   0.0736687      Incl.    3.29004     -0.44738062     -0.01280890
P 295              H    6.2           G   0.15           U   6
Residuals in seconds of arc
K0539  695  0.0   0.1-    K054B  695  0.2-  0.1-    K0632  695  0.0   0.1-
K0539  695  0.1+  0.1-    K054C  695  0.4+  0.1-    K0632  695  0.0   0.1+
K053A  695  0.0   0.1-    K054D  695  0.1+  0.2+    K064Q  807  0.0   0.2+
K054A  695  0.1-  0.2+    K0632  695  0.2+  0.0     K064S  807  0.1+  0.3-

2005 EO297
Epoch 2006 Mar. 6.0 TT = JDT 2453800.5                  MPC
M   6.57154              (2000.0)            P               Q
n   0.00196842     Peri.  350.10029     -0.70600415     -0.66326298
a  63.0556287      Node   144.04934     +0.67525525     -0.73612531
e   0.3467858      Incl.   25.01728     +0.21351461     +0.13491381
P 501              H    7.1           G   0.15           U   5
Residuals in seconds of arc
K053B  695  0.0   0.2-    K054C  695  0.2+  0.1+    K0632  695  0.1-  0.1-
K053C  695  0.1+  0.1+    K054D  695  0.1-  0.1+    K064Q  807  0.0   0.0
K053C  695  0.3-  0.1-    K0632  695  0.1+  0.2+    K064Q  807  0.0   0.1+
K054C  695  0.1+  0.0     K0632  695  0.0   0.0     K064R  807  0.1-  0.2-

2005 EX297
Epoch 2006 Mar. 6.0 TT = JDT 2453800.5                  MPC
M 292.18642              (2000.0)            P               Q
n   0.00308504     Peri.  216.21929     -0.42850356     +0.90266228
a  46.7335338      Node    28.47049     -0.80811195     -0.36316233
e   0.2541010      Incl.    4.79138     -0.40415316     -0.23089809
P 319              H    6.1           G   0.15           U   7
Residuals in seconds of arc
K053B  695  0.1+  0.0     K054A  695  0.0   0.0     K064R  807  0.0   0.0
K053C  695  0.0   0.1-    K054A  695  0.1-  0.1+    K064R  807  0.0   0.1+
K053C  695  0.1-  0.1+    K054B  695  0.2+  0.1-    K064S  807  0.0   0.1-

2005 EN302
Epoch 2006 Mar. 6.0 TT = JDT 2453800.5                  MPC
M 210.29122              (2000.0)            P               Q
n   0.00325386     Peri.  298.00555     +0.96907209     +0.24359950
a  45.1028231      Node    47.92451     -0.20359811     +0.87961450
e   0.0589516      Incl.    3.04882     -0.13945281     +0.40857999
P 303              H    7.0           G   0.15           U   7
Residuals in seconds of arc
K053B  695  0.1+  0.2+    K0579  304  0.0   0.1+    K064Q  807  0.5-  0.2+
K053B  695  0.3+  0.1+    K057A  304  0.3+  0.1+    K064R  807  0.1+  0.3+
K053C  695  0.4-  0.1-    K064M  304  0.2+  0.2-    K064R  807  0.2-  0.4-
K0567  304  0.3-  0.1-    K064M  304  0.1+  0.1-
K0567  304  0.0   0.2-    K064Q  807  0.3+  0.1+

2005 EM303
Eccentricity assumed
Epoch 2006 Mar. 6.0 TT = JDT 2453800.5                  MPC
M  18.76298              (2000.0)            P               Q
n   0.00339160     Peri.   65.88818     -0.99588355     -0.01314201
a  43.8732051      Node   113.25610     -0.02016011     -0.93253543
e   0.0264759      Incl.    5.60188     +0.08837157     -0.36083923
P 291              H    7.5           G   0.15
Residuals in seconds of arc
K053B  695  0.2-  0.0     K054F  304  0.5+  0.1+    K064Q  807  0.1-  0.0
K053B  695  0.2-  0.2-    K0567  304  0.0   0.0     K064R  807  0.1-  0.2+
K053C  695  0.1+  0.4-    K0567  304  0.0   0.2+    K064R  807  0.1-  0.0
K054F  304  0.2-  0.3+    K064Q  807  0.3+  0.3-

2005 EB318
Epoch 2006 Mar. 6.0 TT = JDT 2453800.5                  MPC
M  75.36838              (2000.0)            P               Q
n   0.00322516     Peri.  306.91351     -0.40192951     -0.91549619
a  45.3699439      Node   166.75044     +0.86296111     -0.38524707
e   0.1418749      Incl.    4.47220     +0.30618750     -0.11598024
P 306              H    6.7           G   0.15           U   5
Residuals in seconds of arc
K0539  695  0.0   0.2+    K054F  304  0.3-  0.0     K0589  807  0.0   0.0
K0539  695  0.1-  0.1-    K054F  304  0.3-  0.0     K064R  807  0.1-  0.1+
K053A  695  0.0   0.0     K0567  304  0.2+  0.2+    K064R  807  0.0   0.2+
K054A  695  0.4+  0.0     K0567  304  0.2-  0.2-    K064S  807  0.1+  0.3-
K054A  695  0.0   0.3-    K0587  807  0.0   0.2+
K054B  695  0.2+  0.0     K0588  807  0.0   0.0

2005 EC318
Eccentricity assumed
Epoch 2006 Mar. 6.0 TT = JDT 2453800.5                  MPC
M 252.90225              (2000.0)            P               Q
n   0.00337740     Peri.  154.72443     -0.10381772     +0.99372058
a  43.9961189      Node   109.29382     -0.91986885     -0.07997768
e   0.0250286      Incl.    2.53397     -0.37823694     -0.07824942
P 292              H    6.1           G   0.15
Residuals in seconds of arc
K053B  695  0.2+  0.1-    K0569  304  0.2-  0.1+    K064Q  807  0.0   0.1-
K053B  695  0.2+  0.2-    K0632  695  0.3-  0.0     K064R  807  0.2+  0.0
K053C  695  0.0   0.0     K0632  695  0.1-  0.1+
K0568  304  0.3-  0.3+    K064Q  807  0.3+  0.0

2005 ER318
Epoch 2006 Mar. 6.0 TT = JDT 2453800.5                  MPC
M 332.55544              (2000.0)            P               Q
n   0.00439873     Peri.  215.90571     -0.98213387     +0.17012606
a  36.8907582      Node   333.54479     -0.10060945     -0.83592105
e   0.1802535      Incl.   10.40216     -0.15903083     -0.52181714
P 224              H    7.5           G   0.15           U   6
Residuals in seconds of arc
K053C  695  0.1+  0.1-    K054B  695  0.1+  0.0     K064Q  807  0.2-  0.0
K053C  695  0.0   0.1+    K054B  695  0.1+  0.0     K064R  807  0.2+  0.1-
K054A  695  0.1-  0.0     K064Q  807  0.0   0.0

2005 EW318
Eccentricity assumed
Epoch 2006 Mar. 6.0 TT = JDT 2453800.5                  MPC
M 247.79260              (2000.0)            P               Q
n   0.00324383     Peri.  149.42205     +0.13946480     +0.99012096
a  45.1957298      Node   128.59087     -0.91222653     +0.13415924
e   0.1070311      Incl.    1.06249     -0.38521725     +0.04076505
P 304              H    5.9           G   0.15
Residuals in seconds of arc
K0538  675  0.6+  0.4-    K053A  675  0.7+  0.1-    K0632  695  0.6-  0.0
K0538  675  0.3+  0.2-    K0568  304  1.2-  0.7+    K064R  807  0.8+  0.1-
K0539  675  0.1+  0.2-    K0569  304  1.0-  0.6+    K064S  807  0.7+  0.4-
K0539  675  0.2+  0.2-    K0632  695  0.6-  0.3+    K064S  807  0.8+  0.3-
K053A  675  0.1+  0.0     K0632  695  0.8-  0.3+

2005 GX186
Eccentricity assumed
Epoch 2006 Mar. 6.0 TT = JDT 2453800.5                  MPC
M 293.34198              (2000.0)            P               Q
n   0.00327889     Peri.   92.87103     -0.31232672     +0.94967874
a  44.8729961      Node   158.88240     -0.89564344     -0.28605162
e   0.1061502      Incl.    3.77379     -0.31666203     -0.12761172
P 301              H    6.7           G   0.15
Residuals in seconds of arc
K054A  695  0.1+  0.0     K0632  695  0.1+  0.1-    K064Q  807  0.0   0.1-
K054B  695  0.1-  0.0     K0632  695  0.0   0.1+    K064Q  807  0.1-  0.1-
K054B  695  0.0   0.0     K0632  695  0.0   0.1+    K064S  807  0.0   0.0

